Kalamata, Greece

8:47 AM EEST on April 23, 2017 (GMT +0300)
Kalamata Air Base

Weather History for LGKL - October, 2012

Change the Weather History Date:

Monday, October 1, 2012

  Actual Average Record
Temperature  
Mean Temperature 72 °F -  
Max Temperature 86 °F 76 °F 86 °F (2012)
Min Temperature 57 °F 56 °F 49 °F (2014)
Cooling Degree Days 6    
Growing Degree Days 22 (Base 50)    
Moisture  
Dew Point 61 °F    
Average Humidity 67    
Maximum Humidity 88    
Minimum Humidity 29    
Precipitation  
Precipitation 0.00 in 0.13 in - ()
Sea Level Pressure  
Sea Level Pressure 30.04 in    
Wind  
Wind Speed 3 mph ()    
Max Wind Speed 9 mph    
Max Gust Speed -    
Averages and records for this station are not official NWS values.
T = Trace of Precipitation, MM = Missing Value Source: Averaged Metar Reports

Daily Weather History Graph

Daily Weather History Graph

Search for Another Location

Airport or City:

Trip Planner

Search our weather history database for the weather conditions in past years. The results will help you decide how hot, cold, wet, or windy it might be!

Date:

Astronomy

Oct. 01, 2012 Rise Set
Actual Time 7:27 AM EEST 7:14 PM EEST
Civil Twilight 7:01 AM EEST 7:40 PM EEST
Nautical Twilight 6:31 AM EEST 8:10 PM EEST
Astronomical Twilight 6:01 AM EEST 8:41 PM EEST
Moon 7:44 PM EEST (10/1) 8:35 AM EEST (10/1)
Length of Visible Light 12h 39m
Length of Day
11h 47m
Full, 99% of the Moon is Illuminated
Oct 1
Full
Oct 8
Last Quarter
Oct 15
New
Oct 22
First Quarter
Oct 29
Full

Hourly Weather History & Observations

Time (EEST) Temp. Heat Index Dew Point Humidity Pressure Visibility Wind Dir Wind Speed Gust Speed Precip Events Conditions
2:50 AM 59.0 °F - 55.4 °F 88% 30.04 in - Calm Calm - N/A   Clear
5:50 AM 57.2 °F - 53.6 °F 88% 30.04 in - Calm Calm - N/A   Clear
6:20 AM 57.2 °F - 53.6 °F 88% 30.04 in - Calm Calm - N/A   Clear
6:50 AM 57.2 °F - 53.6 °F 88% 30.04 in - Calm Calm - N/A   Clear
7:20 AM 57.2 °F - 53.6 °F 88% 30.04 in - NW 4.6 mph - N/A   Clear
7:50 AM 57.2 °F - 53.6 °F 88% 30.04 in - NW 4.6 mph - N/A   Clear
8:20 AM 59.0 °F - 53.6 °F 82% 30.04 in - North 4.6 mph - N/A   Clear
8:50 AM 62.6 °F - 55.4 °F 77% 30.04 in - NW 4.6 mph - N/A   Clear
9:20 AM 68.0 °F - 57.2 °F 68% 30.06 in - Calm Calm - N/A   Clear
9:50 AM 73.4 °F - 59.0 °F 61% 30.06 in - Calm Calm - N/A   Clear
10:20 AM 77.0 °F - 57.2 °F 50% 30.06 in - Calm Calm - N/A   Clear
10:50 AM 80.6 °F 80.3 °F 53.6 °F 39% 30.06 in - Calm Calm - N/A   Clear
11:20 AM 84.2 °F 82.8 °F 53.6 °F 35% 30.06 in - Calm Calm - N/A   Clear
11:50 AM 86.0 °F - 50.0 °F 29% 30.06 in - SSE 4.6 mph - N/A   Clear
12:20 PM 84.2 °F 83.5 °F 57.2 °F 40% 30.04 in - SE 6.9 mph - N/A   Clear
12:50 PM 84.2 °F 83.8 °F 59.0 °F 42% 30.04 in - South 6.9 mph - N/A   Clear
1:20 PM 84.2 °F 83.0 °F 55.4 °F 37% 30.04 in - South 8.1 mph - N/A   Clear
1:50 PM 84.2 °F 85.6 °F 64.4 °F 51% 30.04 in - SSW 6.9 mph - N/A   Clear
2:20 PM 82.4 °F 83.9 °F 64.4 °F 54% 30.04 in - SSW 8.1 mph - N/A   Clear
2:50 PM 82.4 °F 84.6 °F 66.2 °F 58% 30.04 in - South 8.1 mph - N/A   Clear
3:20 PM 82.4 °F 86.3 °F 69.8 °F 66% 30.04 in - South 9.2 mph - N/A   Clear
3:50 PM 82.4 °F 85.4 °F 68.0 °F 62% 30.04 in - South 9.2 mph - N/A   Clear
4:20 PM 82.4 °F 83.9 °F 64.4 °F 54% 30.04 in - South 9.2 mph - N/A   Clear
4:50 PM 82.4 °F 83.9 °F 64.4 °F 54% 30.04 in - South 8.1 mph - N/A   Clear
5:20 PM 82.4 °F 83.9 °F 64.4 °F 54% 30.04 in - SSW 8.1 mph - N/A   Clear
5:50 PM 80.6 °F 83.9 °F 69.8 °F 70% 30.04 in - SSW 5.8 mph - N/A   Clear
6:20 PM 78.8 °F - 69.8 °F 74% 30.04 in - Calm Calm - N/A   Clear
6:50 PM 77.0 °F - 71.6 °F 83% 30.04 in - Calm Calm - N/A   Clear
7:20 PM 75.2 °F - 69.8 °F 83% 30.04 in - Calm Calm - N/A   Clear
7:50 PM 73.4 °F - 69.8 °F 88% 30.04 in - Calm Calm - N/A   Clear
8:20 PM 71.6 °F - 68.0 °F 88% 30.04 in - Calm Calm - N/A   Clear
8:50 PM 71.6 °F - 68.0 °F 88% 30.04 in - Calm Calm - N/A   Clear
11:50 PM 66.2 °F - 62.6 °F 88% 30.06 in - Calm Calm - N/A   Clear